Accueil
METAR-TAF:

METAR-TAF

Aéroports :

Butgenbach, Belgique

Elsenborn

latitude: 50-28N, longitude: 006-11E, altitude: 564 m

Observation

Le bulletin a été fait il y a 28 minutes, à 08:25 UTC
Vent 8 kt de ouest
Température 18°C
Humidité 59%
Pression 1019 hPa
Visibilité 10 km ou plus

METAR: EBLB 230825Z AUTO 28008KT 9999 NCD 18/10 Q1019 BLU

Heure: 10:53 (08:53 UTC)


TAF: absent

Observations et prévisions météorologiques de plus de 4000 aéroports (messages METAR et TAF).

Les stations disponibles sont représentées par des disques jaunes et rouges sur la carte.

Passer la souris dessus pour voir le nom de la station.

Cliquer dessus pour voir les observations et prévisions météorologiques.

Pour changer de carte: cliquez sur les boutons verts avec une croix noire pour zoomer, sur le bouton vert avec un tiret pour effectuer un zoom arrière, ou sur les flèches vertes pour les cartes adjacentes.


METAR-TAF: